Location: ???????
(55.3754°N, 39.3545°E)
Time: 15:52:22
(UTC+00:00)

USA 281 - Pass Details

Date: 14 April 2026
Orbit: 1079 x 1080 km, 106.0° (Epoch: 5 January)

Event Time Altitude Azimuth Distance (km) Brightness Sun altitude
Exits shadow 21:54:57 25° 128° (SE) 2,040 4.4 -24.6°
Maximum altitude 21:58:59 67° 53° (NE) 1,169 3.5 -24.5°
Drops below altitude 10° 22:05:30 10° 333° (NNW) 2,934 6.2 -24.3°
Sets 22:08:02 0° 331° (NNW) 3,893 6.9 -24.3°
